Regional Weather Roundup
Issued by NWS

Home | Current Version | Previous Version | Text Only | Print | Product List | Glossary Off
Versions: 1 2 3 4 5 6 7 8 9 10 11 12 13 14 15 16 17 18 19 20 21 22 23 24 25 26 27 28 29 30 31 32 33 34 35 36 37 38 39 40 41 42 43 44 45 46 47 48 49 50

000
ASUS43 KDTX 210301
RWRMI
MICHIGAN HOURLY REGIONAL WEATHER ROUNDUP
NATIONAL WEATHER SERVICE DETROIT/PONTIAC MI
1100 PM EDT SAT SEP 20 2014

NOTE: "FAIR" INDICATES FEW OR NO CLOUDS BELOW 12,000 FEET WITH NO
SIGNIFICANT WEATHER AND/OR OBSTRUCTION TO VISIBILITY.

MIZ047>049-052>055-059>063-066>070-074>076-081>083-210400-
SOUTHEAST LOWER MICHIGAN

CITY           SKY/WX    TMP DP  RH WIND       PRES   REMARKS
ADRIAN         CLOUDY    64  63  96 SW12      29.83F
ALMA           PTCLDY    63  62  96 SW7       29.75F FOG
ANN ARBOR      CLOUDY    64  61  90 SW8       29.81F
BAD AXE        CLOUDY    65  65 100 SW9       29.74S
CARO           CLOUDY    65  64  99 SW6       29.75S FOG
DETROIT CITY   CLOUDY    67  61  81 SW10      29.80F
DETROIT        CLOUDY    64  62  93 S10       29.81F
FLINT          MOCLDY    65  61  87 SW9       29.77F
GROSSE ILE     CLOUDY    66  63  88 SW10      29.81S
HILLSDALE      MOCLDY    65  65 100 SW8       29.82F
HOWELL         MOCLDY    62  60  95 SW6       29.79F

CITY           SKY/WX    TMP DP  RH WIND       PRES   REMARKS
JACKSON        MOCLDY    63  62  97 SW9       29.80F
LAMBERTVILLE   CLOUDY    64  63  94 S7        29.83F
LANSING        CLOUDY    65  63  93 S10       29.77F
LAPEER         FAIR      63  60  91 SW6       29.77F
MASON          MOCLDY    62  60  94 SW5       29.79F
MONROE         CLOUDY    66  63  88 SW10      29.81S
MT. CLEMENS    CLOUDY    65  65 100 SW10      29.77F
PONTIAC        CLOUDY    63  60  90 SW9       29.79F
PORT HOPE        N/A     66  64  93 SW9       29.70R
PORT HURON     CLOUDY    63  63 100 SW5       29.78F
TRI CITIES     PTCLDY    66  63  90 SW10      29.74F
TROY           CLOUDY    65  62  90 SW10      29.81F
SAGINAW HB     PTCLDY    64  64 100 SW7       29.74F
$$
MIZ043>046-050>051-056>058-064>065-071>073-077>080-210400-
SOUTHWEST LOWER MICHIGAN

CITY           SKY/WX    TMP DP  RH WIND       PRES   REMARKS
BATTLE CREEK   CLOUDY    63  61  93 S10       29.80F
BENTON HARBOR  CLEAR     64  63  96 S5        29.77F
BIG RAPIDS     MOCLDY    64  64 100 SW3       29.72F
COLDWATER      MOCLDY    65  64  96 SW8G16    29.81F
FREMONT        FAIR      62  62  97 S5        29.72F FOG
HOLLAND        CLEAR     67  64  90 S8        29.75F
GRAND RAPIDS   CLOUDY    67  66  97 SW10      29.76F FOG
IONIA          CLOUDY    66  65  97 SW7       29.75F
KALAMAZOO      MOCLDY    63  60  90 S7        29.79F
LUDINGTON      MOCLDY    63  61  94 SW9       29.70F
MARSHALL       CLOUDY    63  62  96 SW9       29.79F
MOUNT PLEASANT MOCLDY    65  64  95 SW7       29.73F
MUSKEGON       PTCLDY    67  62  84 SW13      29.72F
SOUTH HAVEN    CLEAR     67  66  96 S6        29.77F
$$
MIZ016>042-210400-
NORTHERN LOWER MICHIGAN

CITY           SKY/WX    TMP DP  RH WIND       PRES   REMARKS
ALPENA         TSTM      63  62  97 CALM      29.68S
BEAVER ISLAND  MOCLDY    58  55  92 NW6       29.69S
BELLAIRE       CLOUDY    63  61  93 N3        29.68F
CADILLAC       CLOUDY    62  62 100 SW9       29.70F
CHARLEVOIX     CLOUDY    60  60  99 CALM      29.71F FOG
FRANKFORT      LGT RAIN  62  59  90 CALM      29.67F
GAYLORD        LGT RAIN  62  60  93 CALM      29.69F
GRAYLING       MOCLDY    64  64  98 CALM      29.70F
HARBOR SPRINGS CLOUDY    60  58  90 W3        29.68F
HOUGHTON LAKE  CLOUDY    63  62  97 SW7       29.71F
MANISTEE       PTCLDY    63  59  88 CALM      29.69F
OSCODA         PTCLDY    64  63  97 SW9       29.68F
PELLSTON       CLOUDY    59  57  93 CALM      29.68F
ROGERS CITY    MOCLDY    62  61  99 W6        29.68R
TRAVERSE CITY  LGT RAIN  63  60  90 E3        29.66F
$$
MIZ007>008-015-210400-
EASTERN UPPER MICHIGAN

CITY           SKY/WX    TMP DP  RH WIND       PRES   REMARKS
KINROSS        CLOUDY    55  55 100 W12       29.67S
MACKINAC ISLAN MOCLDY    57  56  95 NW6       29.67F
NEWBERRY       CLOUDY    54  52  92 NW9       29.68S
S. S. MARIE    CLOUDY    54  52  93 W10       29.66R
$$
MIZ004>006-011>014-085-210400-
CENTRAL UPPER MICHIGAN

CITY           SKY/WX    TMP DP  RH WIND       PRES   REMARKS
MANISTIQUE     CLEAR     53  52  97 N6        29.68S
ESCANABA       CLOUDY    57  52  82 NE7       29.68S
MENOMINEE      CLOUDY    61  55  82 SW3       29.68R
SAWYER-GWINN   CLOUDY    55  51  86 N10       29.71R
$$
MIZ001>003-009>011-084-210400-
WESTERN UPPER MICHIGAN

CITY           SKY/WX    TMP DP  RH WIND       PRES   REMARKS
IRON MOUNTAIN  CLOUDY    58  52  80 N5        29.69R
HOUGHTON       CLOUDY    54  50  86 N5        29.71R
COPPER HARBOR    N/A     52  48  86 NE5       29.71S
IRONWOOD       CLOUDY    54  52  94 CALM      29.66F
$$

ABBREVIATIONS USED IN REMARKS
   TC - TEMPERATURE IN CELSIUS
  WCI - WIND CHILL INDEX
   HX - HEAT INDEX
  VSB - VISIBILITY



USA.gov is the U.S. government's official web portal to all federal, state and local government web resources and services.